KG1ZR Weather Reports


time (UTC)temp
F
wind
direction
speed
knots
gust
knots
rain 1hr
in
rain 24hr
in
rain mn
in
humidity
%
barometer
mb
20260902201720 70 112 2.6 7.0 0.00 0.00 0.00 67 1020.4
20260902200720 70 206 2.6 7.8 0.00 0.00 0.00 67 1020.5
20260902195859 70 145 2.6 7.8 0.00 0.00 0.00 66 1020.7
20260902194154 70 229 2.6 5.2 0.00 0.00 0.00 66 1020.8
20260902192718 70 103 1.7 6.1 0.00 0.00 0.00 66 1020.9
20260902191718 71 121 1.7 6.1 0.00 0.00 0.00 63 1020.9
20260902190718 71 188 1.7 4.3 0.00 0.00 0.00 62 1021.0
20260902185718 71 147 1.7 5.2 0.00 0.00 0.00 64 1021.1
20260902184718 71 125 2.6 6.1 0.00 0.00 0.00 61 1021.0
20260902183718 71 190 1.7 5.2 0.00 0.00 0.00 62 1020.9
20260902182718 71 103 1.7 5.2 0.00 0.00 0.00 59 1020.9
20260902181718 72 138 1.7 5.2 0.00 0.00 0.00 61 1020.8
20260902180718 72 93 0.9 5.2 0.00 0.00 0.00 62 1020.8
20260902180145 72 159 1.7 6.1 0.00 0.00 0.00 60 1020.8
20260902175150 72 52 1.7 6.1 0.00 0.00 0.00 62 1021.0
20260902173712 72 182 2.6 6.1 0.00 0.00 0.00 57 1021.0
20260902172711 73 199 1.7 5.2 0.00 0.00 0.00 59 1020.9
20260902171712 73 107 1.7 5.2 0.00 0.00 0.00 58 1020.9
20260902171151 73 54 2.6 5.2 0.00 0.00 0.00 54 1021.2
20260902170629 72 111 3.5 6.1 0.00 0.00 0.00 56 1021.4
20260902164712 73 127 4.3 7.0 0.00 0.00 0.00 56 1021.4
20260902163712 73 242 2.6 7.0 0.00 0.00 0.00 58 1021.5
20260902162707 72 105 3.5 5.2 0.00 0.00 0.00 62 1021.5
20260902161706 71 98 2.6 8.7 0.00 0.00 0.00 64 1021.6
20260902160706 71 76 4.3 8.7 0.00 0.00 0.00 62 1021.8
20260902155706 71 125 2.6 7.8 0.00 0.00 0.00 60 1021.9
20260902154706 71 69 3.5 7.8 0.00 0.00 0.00 61 1021.8
20260902154152 71 139 4.3 9.6 0.00 0.00 0.00 62 1021.9
20260902153149 71 80 3.5 9.6 0.00 0.00 0.00 64 1021.9
20260902151706 71 63 2.6 9.6 0.00 0.00 0.00 65 1021.9
20260902150706 70 70 2.6 8.7 0.00 0.00 0.00 68 1022.0
20260902145704 70 69 2.6 6.1 0.00 0.00 0.00 68 1022.0
20260902144704 69 217 3.5 7.0 0.00 0.00 0.00 68 1022.0
20260902143702 70 134 2.6 6.1 0.00 0.00 0.00 70 1022.0
20260902143135 69 101 1.7 6.1 0.00 0.00 0.00 72 1022.0
20260902141702 69 175 1.7 7.0 0.00 0.00 0.00 72 1022.1
20260902140701 68 87 0.9 7.0 0.00 0.00 0.00 73 1022.0
20260902135701 67 41 1.7 6.1 0.00 0.00 0.00 74 1022.0
20260902134701 67 35 1.7 6.1 0.00 0.00 0.00 73 1022.1
20260902133701 65 86 1.7 7.0 0.00 0.00 0.00 73 1022.2
20260902132833 65 80 1.7 7.0 0.00 0.00 0.00 69 1021.9
20260902130700 65 108 1.7 5.2 0.00 0.00 0.00 55 1021.9
20260902125701 64 92 1.7 3.5 0.00 0.00 0.00 50 1021.9
20260902124700 62 285 0.9 2.6 0.00 0.00 0.00 50 1022.0
20260902123700 62 114 0.0 0.0 0.00 0.00 0.00 50 1022.0
20260902122701 61 69 0.0 5.2 0.00 0.00 0.00 50 1022.0
20260902121701 61 107 1.7 5.2 0.00 0.00 0.00 51 1022.0
20260902120701 61 67 0.9 2.6 0.00 0.00 0.00 51 1022.2
20260902115701 60 44 0.0 1.7 0.00 0.00 0.00 51 1022.2
20260902114701 60 44 0.0 1.7 0.00 0.00 0.00 51 1022.1
20260902113701 60 42 0.0 1.7 0.00 0.00 0.00 51 1022.1
20260902112702 60 27 0.0 1.7 0.00 0.00 0.00 51 1022.2
20260902111701 60 77 0.9 2.6 0.00 0.00 0.00 51 1022.0
20260902110701 60 67 0.0 1.7 0.00 0.00 0.00 52 1021.8
20260902105701 60 67 0.0 0.9 0.00 0.00 0.00 52 1021.7
20260902104701 60 67 0.0 1.7 0.00 0.00 0.00 52 1021.5
20260902103703 60 56 0.0 1.7 0.00 0.00 0.00 52 1021.5
20260902102701 60 65 0.0 1.7 0.00 0.00 0.00 52 1021.6
20260902101701 60 65 0.0 3.5 0.00 0.00 0.00 52 1021.4
20260902100700 60 65 1.7 3.5 0.00 0.00 0.00 52 1021.4
20260902095701 60 39 1.7 4.3 0.00 0.00 0.00 52 1021.5
20260902094701 60 58 0.9 2.6 0.00 0.00 0.00 52 1021.7
20260902094616 60 47 0.9 3.5 0.00 0.00 0.00 52 1021.5
20260902092701 60 67 0.9 1.7 0.00 0.00 0.00 52 1021.6
20260902091701 60 57 0.9 3.5 0.00 0.00 0.00 52 1021.5
20260902090701 60 46 1.7 3.5 0.00 0.00 0.00 52 1021.5
20260902085702 60 55 0.9 3.5 0.00 0.00 0.00 52 1021.6
20260902084701 60 57 0.9 2.6 0.00 0.00 0.00 52 1021.5
20260902083701 60 52 0.9 2.6 0.00 0.00 0.00 52 1021.5
20260902082701 60 40 0.9 2.6 0.00 0.00 0.00 52 1021.4
20260902081700 60 47 0.0 2.6 0.00 0.00 0.00 52 1021.3
20260902080700 60 75 0.9 2.6 0.00 0.00 0.00 52 1021.3
20260902075702 60 45 0.0 1.7 0.00 0.00 0.00 52 1021.2
20260902074701 60 56 0.0 0.9 0.00 0.00 0.00 52 1021.0
20260902073701 60 44 0.0 1.7 0.00 0.00 0.00 52 1021.0
20260902072701 60 67 0.0 2.6 0.00 0.00 0.00 52 1020.8
20260902071701 60 67 0.0 2.6 0.00 0.00 0.00 52 1020.9
20260902070700 59 43 0.0 0.0 0.00 0.00 0.00 53 1020.8
20260902065701 59 51 0.0 0.0 0.00 0.00 0.00 53 1020.8
20260902064701 59 94 0.0 0.0 0.00 0.00 0.00 53 1021.0
20260902063701 59 94 0.0 0.0 0.00 0.00 0.00 53 1021.0
20260902062702 59 94 0.0 0.0 0.00 0.00 0.00 54 1020.8
20260902055701 59 155 0.0 0.0 0.00 0.00 0.00 53 1020.6
20260902054702 59 155 0.0 0.0 0.00 0.00 0.00 53 1020.4
20260902053701 59 155 0.0 0.0 0.00 0.00 0.00 53 1020.3
20260902052701 59 155 0.0 0.0 0.00 0.00 0.00 53 1020.2
20260902051702 59 55 0.0 0.0 0.00 0.00 0.00 54 1020.1
20260902050702 59 55 0.0 0.9 0.00 0.00 0.00 54 1020.0
20260902050151 59 55 0.0 0.9 0.00 0.00 0.00 54 1020.0
20260902044701 58 93 0.0 0.0 0.00 0.00 0.00 55 1020.0
20260902043701 57 130 0.0 0.0 0.00 0.00 0.00 56 1019.9
20260902042702 57 42 0.0 0.0 0.00 0.00 0.00 57 1019.9
20260902042134 56 42 0.0 0.0 0.00 0.00 0.00 58 1019.8
20260902040701 56 42 0.0 0.0 0.00 0.00 0.00 59 1019.8
20260902035701 56 42 0.0 0.0 0.00 0.00 0.00 60 1019.8
20260902034701 56 42 0.0 0.0 0.00 0.00 0.00 60 1019.6
20260902033701 56 42 0.0 0.0 0.00 0.00 0.00 61 1019.6
20260902032701 56 42 0.0 0.0 0.00 0.00 0.00 61 1019.5
20260902031701 57 42 0.0 0.0 0.00 0.00 0.00 62 1019.4
20260902030701 57 42 0.0 0.0 0.00 0.00 0.00 62 1019.2
20260902025701 58 42 0.0 0.0 0.00 0.00 0.00 62 1019.0
20260902024701 58 42 0.0 0.0 0.00 0.00 0.00 63 1019.1
20260902023701 58 42 0.0 0.0 0.00 0.00 0.00 63 1019.1
20260902022658 59 42 0.0 0.0 0.00 0.00 0.00 64 1019.2
20260902021657 59 42 0.0 0.0 0.00 0.00 0.00 65 1019.1
20260902021137 60 269 0.0 0.0 0.00 0.00 0.00 64 1019.1
20260902015657 61 290 0.0 0.0 0.00 0.00 0.00 65 1019.0
20260902014656 62 207 0.0 0.0 0.00 0.00 0.00 66 1018.8
20260902013657 62 146 0.0 0.9 0.00 0.00 0.00 66 1019.0
20260902013149 62 172 0.9 3.5 0.00 0.00 0.00 66 1019.2
20260902011657 62 171 0.9 3.5 0.00 0.00 0.00 67 1019.1
20260902010657 62 229 0.9 3.5 0.00 0.00 0.00 68 1018.9
20260902005657 62 198 0.9 3.5 0.00 0.00 0.00 69 1018.8
20260902004656 63 232 0.9 3.5 0.00 0.00 0.00 69 1018.8
20260902003657 63 173 0.9 2.6 0.00 0.00 0.00 70 1018.6
20260902002657 63 193 0.9 3.5 0.00 0.00 0.00 71 1018.5
20260902001657 64 225 0.9 5.2 0.00 0.00 0.00 72 1018.4
20260902000657 64 106 0.9 6.1 0.00 0.00 0.00 73 1018.3
20260901235657 65 188 0.9 3.5 0.00 0.00 0.00 74 1018.2
20260901234656 65 215 0.9 4.3 0.00 0.00 0.00 75 1018.2
20260901233656 66 134 0.9 3.5 0.00 0.00 0.00 75 1018.1
20260901233143 67 123 0.9 3.5 0.00 0.00 0.00 75 1018.1
20260901232611 67 132 0.9 6.1 0.00 0.00 0.00 75 1018.1
20260901230656 68 90 1.7 6.1 0.00 0.00 0.00 75 1018.1
20260901225657 68 127 1.7 6.1 0.00 0.00 0.00 74 1018.0
20260901224653 69 200 0.9 6.1 0.00 0.00 0.00 74 1018.0
20260901223652 69 121 2.6 6.1 0.00 0.00 0.00 74 1017.9
20260901222653 69 121 0.9 7.0 0.00 0.00 0.00 74 1017.9
20260901221653 69 98 2.6 6.1 0.00 0.00 0.00 74 1017.8
20260901220653 70 211 1.7 8.7 0.00 0.00 0.00 73 1017.7
20260901215652 70 70 2.6 8.7 0.00 0.00 0.00 73 1017.6
20260901214653 70 107 2.6 7.8 0.00 0.00 0.00 73 1017.5
20260901214132 71 74 2.6 8.7 0.00 0.00 0.00 72 1017.3
20260901212652 71 175 2.6 8.7 0.00 0.00 0.00 71 1017.2
20260901211652 72 77 2.6 8.7 0.00 0.00 0.00 70 1017.2
20260901210653 74 208 3.5 8.7 0.00 0.00 0.00 67 1017.3
20260901205652 75 140 3.5 7.0 0.00 0.00 0.00 63 1017.0
20260901205127 76 82 0.9 5.2 0.00 0.00 0.00 57 1016.9
20260901203648 76 355 0.0 1.7 0.00 0.00 0.00 60 1016.7
20260901202646 75 288 0.0 0.9 0.00 0.00 0.00 58 1016.6